TimePST,TemperatureF,Dew PointF,Humidity,Sea Level PressureIn,VisibilityMPH,Wind Direction,Wind SpeedMPH,Gust SpeedMPH,PrecipitationIn,Events,Conditions,WindDirDegrees,DateUTC
12:53 AM,35.1,25.0,67,30.09,10.0,North,5.8,-,N/A,,Clear,360,2013-12-29 08:53:00
1:53 AM,37.9,24.1,57,30.10,10.0,NE,5.8,-,N/A,,Clear,50,2013-12-29 09:53:00
2:53 AM,34.0,23.0,64,30.11,10.0,NE,4.6,-,N/A,,Clear,40,2013-12-29 10:53:00
3:53 AM,32.0,21.9,66,30.12,10.0,North,3.5,-,N/A,,Clear,350,2013-12-29 11:53:00
4:53 AM,30.9,21.0,67,30.12,10.0,Calm,Calm,-,N/A,,Clear,0,2013-12-29 12:53:00
5:53 AM,30.9,21.0,67,30.13,10.0,Calm,Calm,-,N/A,,Clear,0,2013-12-29 13:53:00
6:53 AM,30.0,21.0,69,30.15,10.0,Calm,Calm,-,N/A,,Clear,0,2013-12-29 14:53:00
7:53 AM,28.9,19.9,69,30.17,10.0,Calm,Calm,-,N/A,,Clear,0,2013-12-29 15:53:00
8:53 AM,36.0,23.0,59,30.19,10.0,Calm,Calm,-,N/A,,Clear,0,2013-12-29 16:53:00
9:53 AM,42.1,24.1,49,30.19,10.0,NNW,3.5,-,N/A,,Clear,330,2013-12-29 17:53:00
10:53 AM,50.0,25.0,38,30.18,10.0,NNE,3.5,-,N/A,,Clear,30,2013-12-29 18:53:00
11:53 AM,55.0,26.1,33,30.15,10.0,Calm,Calm,-,N/A,,Clear,0,2013-12-29 19:53:00
12:53 PM,62.1,27.0,26,30.12,10.0,Calm,Calm,-,N/A,,Clear,0,2013-12-29 20:53:00
1:53 PM,66.0,26.1,22,30.09,10.0,Calm,Calm,-,N/A,,Clear,0,2013-12-29 21:53:00
2:53 PM,71.1,25.0,18,30.08,10.0,Calm,Calm,-,N/A,,Clear,0,2013-12-29 22:53:00
3:53 PM,70.0,23.0,17,30.08,10.0,Calm,Calm,-,N/A,,Clear,0,2013-12-29 23:53:00
4:53 PM,64.9,23.0,20,30.09,10.0,Calm,Calm,-,N/A,,Clear,0,2013-12-30 00:53:00
5:53 PM,57.0,21.9,26,30.11,10.0,SE,6.9,-,N/A,,Clear,140,2013-12-30 01:53:00
6:53 PM,51.1,23.0,33,30.14,10.0,East,8.1,-,N/A,,Clear,100,2013-12-30 02:53:00
7:53 PM,48.9,23.0,36,30.16,10.0,Calm,Calm,-,N/A,,Clear,0,2013-12-30 03:53:00
8:53 PM,44.1,21.9,42,30.17,10.0,SSE,4.6,-,N/A,,Clear,150,2013-12-30 04:53:00
9:53 PM,45.0,23.0,42,30.18,10.0,East,4.6,-,N/A,,Clear,100,2013-12-30 05:53:00
10:53 PM,41.0,21.9,47,30.19,10.0,East,3.5,-,N/A,,Clear,80,2013-12-30 06:53:00
11:53 PM,37.9,21.9,53,30.20,10.0,Calm,Calm,-,N/A,,Clear,0,2013-12-30 07:53:00